Location: Cisewo
(53.3833°N, 14.9000°E)
Time: 04:03:14
(UTC+00:00)

NOAA 18 - Pass Details

Date: 25 September 2021
Orbit: 841 x 860 km, 99.0° (Epoch: 17 October)

Event Time Altitude Azimuth Distance (km) Brightness Sun altitude
Exits shadow 18:01:30 11° 77° (ENE) 2,374 7.0 -11.2°
Maximum altitude 18:04:08 16° 47° (NE) 2,102 7.0 -11.6°
Drops below altitude 10° 18:07:16 10° 12° (NNE) 2,486 7.7 -12.0°
Sets 18:10:34 0° 351° (N) 3,430 8.7 -12.5°
